Provincetown, Massachusetts, United States (02657)
Lat: 42.06N, Lon: 70.18W
Wx Zone: MAZ022
Local Info
Past Weather Observations for Today

NOTE: This archive is for the closest National Weather Service station to Provincetown. Information may differ from the station used for current weather conditions.

Click here for Long-term Archive

Time Weather Temperature Dewpoint Humidity Pressure Winds Precip Visibility
18:15
Overcast
48°F / 9°C -2°F / -19°C 12% 29.98 in
(1015 mb)
Calm - 10SM
17:55
Overcast
50°F / 10°C -2°F / -19°C 11% 29.95 in
(1014 mb)
Calm - 10SM
17:35
Overcast
50°F / 10°C -2°F / -19°C 11% 29.95 in
(1014 mb)
Calm - 10SM
17:15
Overcast
52°F / 11°C -2°F / -19°C 10% 29.95 in
(1014 mb)
Calm - 10SM
16:55
Overcast
52°F / 11°C °F / -18°C 11% 29.95 in
(1014 mb)
Calm - 10SM
16:35
Overcast
54°F / 12°C °F / -18°C 11% 29.95 in
(1014 mb)
Calm - 10SM
16:15
Overcast
54°F / 12°C °F / -18°C 11% 29.95 in
(1014 mb)
Calm - 10SM
15:55
Overcast
54°F / 12°C 1°F / -17°C 12% 29.95 in
(1014 mb)
Calm - 10SM
15:35
Overcast
55°F / 13°C 1°F / -17°C 11% 29.95 in
(1014 mb)
NE 3.5 mph
(NE 6 kph)
- 10SM
15:15
Mostly Cloudy
55°F / 13°C 1°F / -17°C 11% 29.95 in
(1014 mb)
Calm - 10SM
14:55
Partly Cloudy
57°F / 14°C 1°F / -17°C 10% 29.92 in
(1013 mb)
N 4.6 mph
(N 7 kph)
- 10SM
14:35
Mostly Cloudy
55°F / 13°C 1°F / -17°C 11% 29.92 in
(1013 mb)
N 4.6 mph
(N 7 kph)
- 10SM
14:15
Overcast
55°F / 13°C 1°F / -17°C 11% 29.92 in
(1013 mb)
N 5.8 mph
(N 9 kph)
- 10SM
13:55
Overcast
57°F / 14°C 3°F / -16°C 11% 29.92 in
(1013 mb)
NNW 5.8 mph
(NNW 9 kph)
- 10SM
13:35
Mostly Cloudy
61°F / 16°C 5°F / -15°C 11% 29.92 in
(1013 mb)
NNW 4.6 mph
(NNW 7 kph)
- 10SM
13:15
Clear
59°F / 15°C 3°F / -16°C 10% 29.92 in
(1013 mb)
NNW 4.6 mph
(NNW 7 kph)
- 10SM
12:55
Clear
59°F / 15°C 3°F / -16°C 10% 29.92 in
(1013 mb)
NNW 8.1 mph
(NNW 13 kph)
- 10SM
12:35
Clear
59°F / 15°C 3°F / -16°C 10% 29.92 in
(1013 mb)
NNW 9.2 mph
(NNW 15 kph)
- 10SM
12:15
Clear
59°F / 15°C 3°F / -16°C 10% 29.92 in
(1013 mb)
NW 10.4 mph
(NW 17 kph)
- 10SM
11:55
Clear
57°F / 14°C 3°F / -16°C 11% 29.92 in
(1013 mb)
NW 8.1 mph
(NW 13 kph)
- 10SM
11:35
Clear
57°F / 14°C 3°F / -16°C 11% 29.95 in
(1014 mb)
NW 9.2 mph
(NW 15 kph)
- 10SM
11:15
Clear
57°F / 14°C 3°F / -16°C 11% 29.95 in
(1014 mb)
NW 10.4 mph
(NW 17 kph)
- 10SM
10:55
Clear
57°F / 14°C 3°F / -16°C 11% 29.95 in
(1014 mb)
NW 10.4 mph
(NW 17 kph)
- 10SM
10:35
Clear
57°F / 14°C 3°F / -16°C 11% 29.95 in
(1014 mb)
NW 11.5 mph
(NW 19 kph)
- 10SM
10:15
Clear
57°F / 14°C 3°F / -16°C 11% 29.95 in
(1014 mb)
NW 11.5 mph
(NW 19 kph)
- 10SM
09:55
Clear
55°F / 13°C 1°F / -17°C 11% 29.95 in
(1014 mb)
NW 8.1 mph
(NW 13 kph)
- 10SM
09:35
Clear
55°F / 13°C 1°F / -17°C 11% 29.95 in
(1014 mb)
NW 6.9 mph
(NW 11 kph)
- 10SM
09:15
Clear
55°F / 13°C 1°F / -17°C 11% 29.95 in
(1014 mb)
NW 9.2 mph
(NW 15 kph)
- 10SM
08:55
Clear
55°F / 13°C 1°F / -17°C 11% 29.95 in
(1014 mb)
NW 10.4 mph
(NW 17 kph)
- 10SM
08:35
Clear
54°F / 12°C °F / -18°C 11% 29.95 in
(1014 mb)
NW 10.4 mph
(NW 17 kph)
- 10SM
08:15
Clear
54°F / 12°C °F / -18°C 11% 29.95 in
(1014 mb)
WNW 9.2 mph
(WNW 15 kph)
- 10SM
07:55
Clear
52°F / 11°C °F / -18°C 11% 29.95 in
(1014 mb)
NW 9.2 mph
(NW 15 kph)
- 10SM
07:35
Clear
52°F / 11°C -2°F / -19°C 10% 29.95 in
(1014 mb)
NW 11.5 mph
(NW 19 kph)
- 10SM
07:15
Clear
50°F / 10°C -2°F / -19°C 11% 29.95 in
(1014 mb)
NW 10.4 mph
(NW 17 kph)
- 10SM
06:55
Clear
48°F / 9°C -2°F / -19°C 12% 29.92 in
(1013 mb)
NW 9.2 mph
(NW 15 kph)
- 10SM
06:35
Clear
50°F / 10°C -2°F / -19°C 11% 29.92 in
(1013 mb)
NW 11.5 mph
(NW 19 kph)
- 10SM
06:15
Clear
50°F / 10°C -2°F / -19°C 11% 29.92 in
(1013 mb)
NW 10.4 mph
(NW 17 kph)
- 10SM
05:55
Clear
50°F / 10°C -2°F / -19°C 11% 29.92 in
(1013 mb)
NW 11.5 mph
(NW 19 kph)
- 10SM
05:35
Clear
50°F / 10°C -2°F / -19°C 11% 29.92 in
(1013 mb)
NW 9.2 mph
(NW 15 kph)
- 10SM
05:15
Clear
50°F / 10°C -2°F / -19°C 11% 29.92 in
(1013 mb)
NW 10.4 mph
(NW 17 kph)
- 10SM
04:55
Clear
50°F / 10°C -2°F / -19°C 11% 29.92 in
(1013 mb)
NW 11.5 mph
(NW 19 kph)
- 10SM
04:35
Clear
52°F / 11°C -2°F / -19°C 10% 29.92 in
(1013 mb)
NW 10.4 mph
(NW 17 kph)
- 10SM
04:15
Clear
52°F / 11°C -2°F / -19°C 10% 29.89 in
(1012 mb)
NW 15 mph
(NW 24 kph)
- 10SM
03:55
Clear
52°F / 11°C -2°F / -19°C 10% 29.89 in
(1012 mb)
NW 10.4 mph
(NW 17 kph)
- 10SM
03:35
Clear
52°F / 11°C -2°F / -19°C 10% 29.89 in
(1012 mb)
NW 11.5 mph
(NW 19 kph)
- 10SM
03:15
Clear
52°F / 11°C -2°F / -19°C 10% 29.89 in
(1012 mb)
NW 13.8 mph
(NW 22 kph)
- 10SM
02:55
Clear
52°F / 11°C -2°F / -19°C 10% 29.89 in
(1012 mb)
NW 16.1 mph
(NW 26 kph)
- 10SM
02:35
Clear
52°F / 11°C -2°F / -19°C 10% 29.89 in
(1012 mb)
NW 15 mph
(NW 24 kph)
- 10SM
02:15
Clear
52°F / 11°C °F / -18°C 11% 29.89 in
(1012 mb)
NW 13.8 mph
(NW 22 kph)
- 10SM
01:55
Mostly Cloudy
52°F / 11°C °F / -18°C 11% 29.89 in
(1012 mb)
NW 11.5 mph
(NW 19 kph)
- 10SM
01:35
Overcast
54°F / 12°C °F / -18°C 11% 29.89 in
(1012 mb)
NW 12.7 mph
(NW 20 kph)
- 10SM
01:15
Overcast
54°F / 12°C °F / -18°C 11% 29.89 in
(1012 mb)
NW 16.1 mph
(NW 26 kph)
- 10SM
00:55
Overcast
54°F / 12°C °F / -18°C 11% 29.89 in
(1012 mb)
NW 15 mph
(NW 24 kph)
- 10SM
00:35
Overcast
54°F / 12°C °F / -18°C 11% 29.89 in
(1012 mb)
W 11.5 mph
(W 19 kph)
- 10SM
00:15
Overcast
52°F / 11°C °F / -18°C 11% 29.89 in
(1012 mb)
W 8.1 mph
(W 13 kph)
- 10SM
Time Weather Temperature Dewpoint Humidity Pressure Winds Precip Visibility


Weather for websites

WeatherForYou.com, LLC is not responsible for any damages or problems caused by this service. Current weather conditions are obtained from the closest station including government and personal stations which may have varying degrees of accuracy. Weather forecasts are derived from the NOAA NDFD. Like all things, this site belongs to Jesus Christ... He just trusts me to maintain it. If you have any questions or comments email webmaster@weatherforyou.com

Copyright © 2014, WeatherForYou.com LLC. All rights reserved.